Temperature
13 13 13 13 12 12 12 12 12 12 12 12 12 12 12 12 12 12 11 11 11 11 11 11 11 10 10 10 10 10 10 10 10 10 10 10 10 10 10 10 10 10 10
12 12 12 12 12 12 12 12 12 12 12 11 11 11 11 11 11 11 11 11 11 11 10 10 10 10 9 9 9 10 10 10 10 10 10 10 10 10 10 10 10 10 10
12 12 12 12 12 11 11 11 11 11 11 11 11 11 11 11 11 11 11 10 10 10 10 10 10 9 9 9 9 9 9 9 9 9 9 9 9 9 9 9 9 9 9
11 11 11 11 11 11 11 11 11 11 11 11 11 11 11 11 10 10 10 10 10 9 9 9 9 9 9 9 9 8 8 8 8 8 8 8 8 9 9 9 9 9 9
11 11 11 11 11 10 10 10 10 10 10 10 10 10 10 10 10 10 9 9 9 9 9 9 9 8 8 8 8 8 8 8 8 8 8 8 8 8 8 8 8 8 8
10 10 10 10 10 10 10 10 10 10 9 10 10 10 10 9 9 9 9 9 9 9 8 8 8 8 8 8 7 7 7 7 7 7 7 7 7 7 7 7 7 7 8
10 10 10 10 10 9 9 9 9 9 9 9 9 9 9 9 9 8 8 8 8 8 8 7 7 7 7 7 7 7 7 7 7 6 6 6 7 7 7 7 7 7 7
9 9 9 9 9 9 9 9 9 9 9 8 8 8 7 8 8 8 8 8 7 7 7 7 7 7 7 6 6 6 6 6 6 6 6 6 6 6 6 6 6 6 6
9 9 9 9 9 9 9 8 8 8 8 8 7 7 6 6 6 7 7 7 7 6 6 6 6 6 6 6 6 6 6 5 5 5 5 5 5 5 5 5 5 5 5
9 9 8 8 8 8 8 8 8 7 7 7 7 6 6 5 5 5 6 6 6 6 6 6 6 6 5 5 5 5 5 5 5 5 5 5 5 5 5 5 5 5 5
8 8 8 8 8 8 8 7 7 7 7 6 6 6 6 5 5 4 4 5 6 6 6 5 5 5 5 5 5 5 4 4 4 4 4 4 4 4 4 5 4 4 4
8 8 8 7 7 7 7 7 7 7 6 6 6 5 5 5 4 4 3 4 4 5 5 5 5 5 5 4 4 4 4 4 4 4 4 4 4 4 4 4 4 4 4
8 7 7 7 7 7 7 7 6 6 6 6 6 5 5 4 4 4 3 3 3 4 4 5 5 4 4 4 4 4 4 4 3 3 3 3 3 4 3 3 3 3 3
7 7 7 7 6 6 6 6 6 6 6 5 5 5 5 4 4 3 3 2 2 3 3 4 4 4 3 3 3 3 3 3 3 3 3 3 3 3 3 3 3 3 3
7 6 6 6 6 6 6 6 6 5 5 5 5 5 4 4 4 3 3 2 1 1 2 3 3 3 2 2 2 2 2 2 2 2 2 3 3 2 2 2 2 2 2
6 6 6 6 5 5 5 5 5 5 5 5 5 4 4 4 3 3 2 2 1 1 0 2 2 2 2 2 2 2 2 2 2 2 2 2 2 2 2 2 2 2 2
6 6 5 5 5 5 5 5 5 5 4 4 4 4 4 3 3 3 2 2 1 0 0 1 1 1 1 1 2 1 1 1 1 1 1 1 1 1 2 2 2 2 2
5 5 5 5 5 5 5 4 4 4 4 4 4 3 3 3 2 2 2 1 1 0 -0 0 1 1 1 1 1 1 1 1 1 1 1 1 1 1 1 1 1 1 1
5 5 5 5 5 4 4 4 4 4 3 3 3 3 2 2 2 2 1 1 0 0 -0 -0 -0 0 0 0 0 0 0 0 0 0 0 0 0 0 1 1 1 1 1
4 4 4 4 4 4 4 4 3 3 3 3 2 2 2 2 1 1 0 0 -0 -0 -0 -1 -0 -0 -0 -0 -1 -0 -0 -0 -0 0 0 -0 -0 0 0 0 1 1 1
4 4 4 4 3 3 3 3 3 3 2 2 2 2 1 1 1 0 0 -0 -0 -1 -1 -1 -1 -1 -1 -1 -1 -2 -2 -1 -1 -1 -0 -0 -0 0 0 0 0 0 1
3 3 3 3 3 3 3 3 2 2 2 2 2 1 1 1 0 0 -0 -0 -1 -1 -1 -2 -2 -2 -2 -2 -2 -2 -2 -2 -2 -1 -2 -1 -1 -1 -1 -0 -0 -0 0
3 3 3 3 3 2 2 2 2 2 1 1 1 1 0 0 0 0 -0 -0 -1 -1 -2 -2 -2 -2 -2 -2 -2 -2 -2 -3 -3 -2 -2 -2 -1 -1 -1 -1 -0 -0 -0
3 3 2 2 2 2 2 2 1 1 1 1 0 0 0 0 -0 -0 -1 -1 -1 -1 -2 -2 -2 -2 -2 -2 -2 -3 -3 -2 -2 -2 -2 -2 -1 -1 -1 -1 -1 -1 -1
2 2 2 2 2 1 1 1 1 1 0 0 0 -0 -0 -0 -1 -1 -1 -1 -1 -2 -2 -2 -2 -2 -2 -2 -2 -2 -2 -2 -3 -2 -2 -3 -2 -2 -1 -1 -1 -1 -1
2 2 1 1 1 1 0 0 0 -0 -0 -0 -0 -0 -1 -1 -1 -2 -2 -2 -2 -2 -2 -2 -2 -2 -2 -2 -2 -2 -3 -3 -3 -3 -2 -3 -3 -3 -2 -1 -1 -1 -1
Wind_Speed
3 4 4 5 5 6 5 5 5 5 6 6 6 6 6 6 7 7 7 10 10 10 10 10 11 12 12 13 13 13 13 13 13 14 14 14 15 15 15 16 16 16 17
4 3 3 3 4 4 4 4 4 4 3 4 4 5 5 5 6 6 7 8 10 10 10 11 12 13 13 14 14 14 14 14 14 14 14 15 16 16 16 17 18 18 18
5 4 3 2 3 4 4 4 4 4 3 4 4 4 4 4 5 5 6 7 8 9 11 12 13 14 14 14 14 15 15 15 15 16 16 17 17 17 18 18 18 19 20
5 4 3 2 2 3 4 2 2 3 3 3 4 4 4 3 4 4 5 6 7 7 9 12 14 15 15 15 15 16 16 16 16 17 18 18 18 19 19 19 19 20 20
4 4 2 2 2 3 3 2 2 2 2 4 4 4 3 3 3 3 4 5 6 6 7 10 13 15 15 16 16 17 17 17 18 18 19 19 19 20 20 20 20 21 21
4 4 3 2 3 2 2 2 2 2 1 2 4 4 4 3 3 2 3 4 5 6 7 8 10 12 14 16 17 18 19 19 19 19 20 19 19 20 20 21 21 21 21
3 3 2 2 2 1 1 1 1 2 3 3 2 4 4 3 3 2 3 3 4 5 7 8 9 10 11 15 17 18 19 20 20 21 21 21 21 21 21 21 22 22 22
3 3 2 1 1 1 2 1 1 1 2 3 2 2 3 4 3 3 3 3 3 4 5 8 9 10 11 11 14 18 19 20 21 22 22 22 22 23 22 22 22 22 22
2 2 2 2 1 1 0 0 0 1 1 2 2 1 1 3 5 3 3 3 4 4 5 6 8 10 11 12 13 16 19 21 22 23 23 23 24 24 24 24 23 23 23
2 2 2 2 2 1 1 1 0 0 1 1 1 0 1 2 2 5 4 3 4 5 6 7 8 10 11 11 13 17 20 22 23 23 24 24 25 25 25 24 24 24 24
1 1 2 2 1 1 1 1 0 0 1 1 1 1 1 2 3 3 7 8 6 5 5 6 7 7 10 11 12 16 20 22 23 24 25 25 25 26 25 25 25 25 24
1 1 1 1 1 1 1 1 1 1 1 1 1 1 2 2 2 3 6 9 9 7 7 6 6 6 9 10 13 19 21 22 23 24 25 26 26 26 25 25 25 25 25
1 2 1 1 1 1 1 1 1 1 2 2 2 2 2 3 3 4 5 8 9 8 6 5 5 6 9 11 13 20 20 22 24 24 25 26 25 25 25 25 25 25 25
3 2 2 2 1 1 1 1 1 1 1 2 3 3 3 3 3 3 4 6 9 8 6 7 5 5 8 11 15 19 17 22 23 24 25 25 24 24 25 25 25 25 25
2 2 2 1 1 1 1 1 1 2 2 2 3 3 3 3 3 3 4 4 4 9 11 8 5 6 9 12 16 15 15 20 23 24 25 25 24 24 25 24 24 24 24
2 2 1 1 1 1 1 1 1 2 2 3 2 3 3 3 4 3 4 4 4 6 9 8 8 9 11 13 17 16 15 21 22 23 24 24 24 24 24 24 24 24 24
2 2 2 1 1 2 1 1 2 2 2 3 3 3 4 5 4 4 4 4 5 5 9 11 9 9 10 11 13 13 14 14 15 22 23 24 23 23 23 23 24 24 24
2 2 2 1 1 2 2 2 2 2 2 3 4 4 5 4 5 5 4 5 5 5 7 13 12 10 10 10 11 11 12 13 13 19 22 23 23 23 23 23 23 23 23
1 1 1 1 1 2 2 2 2 2 3 4 4 4 5 5 5 5 6 6 6 6 6 9 11 10 9 9 10 11 11 10 12 16 19 20 21 22 23 23 23 23 23
2 1 0 0 1 2 2 2 2 2 3 3 4 4 4 5 6 6 6 6 6 7 7 8 10 10 9 8 8 10 12 9 10 12 14 16 19 21 21 22 22 22 22
1 1 1 1 2 2 2 2 1 2 2 3 4 4 5 7 9 7 7 7 6 7 7 8 9 10 10 10 10 9 12 12 10 7 9 10 11 10 13 17 19 20 20
2 1 1 1 2 2 5 4 3 1 2 3 4 5 6 6 9 11 12 11 10 8 8 8 8 10 12 11 10 10 11 11 9 6 8 11 9 9 10 11 17 20 20
2 1 1 1 2 4 6 5 4 2 2 3 4 5 5 6 9 7 9 11 10 12 11 9 9 10 11 11 11 11 11 11 11 9 9 10 8 9 10 13 19 19 18
1 0 1 2 2 4 6 6 5 2 2 3 3 4 5 6 7 8 7 8 7 7 9 8 7 9 10 10 9 10 11 11 10 7 6 7 8 8 10 11 16 18 19
1 1 1 2 2 4 7 7 6 2 2 3 4 4 5 5 10 11 8 8 9 8 10 12 13 13 15 15 13 8 8 8 9 7 4 4 6 8 8 7 10 16 17
1 1 1 2 2 3 6 7 6 1 2 4 4 4 7 8 10 11 7 6 8 9 9 10 10 12 10 11 13 8 7 7 7 6 4 5 5 6 5 5 6 9 10
Wind_Direction
83 74 66 60 52 48 46 40 38 33 30 25 24 26 20 12 6 4 360 2 3 1 358 354 350 346 341 337 334 329 322 317 313 310 306 304 301 298 296 294 290 289 287
96 86 73 61 48 43 44 46 38 36 27 25 18 15 9 3 2 1 359 1 4 2 360 355 351 345 341 337 332 330 326 320 316 311 306 301 298 296 294 292 290 288 284
104 95 84 66 45 41 46 46 37 36 28 19 3 1 7 1 357 355 355 0 360 359 359 356 353 347 342 338 334 330 327 323 317 311 307 303 299 296 291 289 288 286 285
110 99 84 63 46 51 51 43 25 20 12 3 349 341 348 352 351 351 354 358 359 357 354 355 353 348 342 339 335 331 327 322 319 315 311 306 301 296 292 287 285 284 284
113 107 95 67 62 62 52 32 25 23 2 352 340 336 336 337 335 347 354 354 353 355 352 348 348 346 342 338 335 331 328 323 320 316 314 310 305 301 296 290 286 284 282
116 108 98 75 69 66 36 29 21 13 358 334 334 337 327 321 331 335 325 340 348 347 347 345 345 340 339 337 335 331 327 324 321 317 314 311 307 304 300 294 290 287 284
123 113 98 83 72 72 52 34 28 18 7 351 4 345 333 324 325 315 318 329 336 336 341 341 339 334 331 331 331 329 327 324 320 317 315 311 308 304 301 298 294 290 286
135 124 121 116 96 79 49 34 42 31 3 12 32 6 345 337 336 313 310 304 312 329 332 330 329 326 323 323 321 324 323 322 320 318 315 313 309 304 301 297 296 294 291
156 137 140 138 136 132 164 312 72 77 2 1 38 95 28 301 316 303 288 294 305 311 309 316 319 318 318 318 316 319 320 320 318 316 315 315 311 305 302 300 297 295 294
159 150 151 150 151 158 201 254 12 238 147 331 344 6 219 234 289 310 309 298 299 297 297 308 311 312 313 312 311 315 318 318 318 317 315 314 312 308 305 303 301 297 295
158 159 158 149 163 191 224 252 291 258 199 225 256 272 293 287 249 268 298 308 308 290 288 293 295 304 310 309 310 312 315 316 317 316 315 313 312 310 307 303 300 298 295
226 192 155 156 185 212 229 241 242 239 240 242 258 256 259 267 280 276 287 302 306 303 298 290 290 297 306 308 309 313 315 315 315 316 315 313 311 308 306 304 302 300 296
238 238 227 222 233 232 229 223 254 262 247 254 260 269 263 263 269 278 288 298 302 303 299 289 282 293 306 312 312 314 314 316 316 316 315 313 312 309 306 304 302 300 297
220 221 225 231 245 244 246 230 261 276 271 265 273 272 277 276 274 272 277 297 308 306 300 293 296 290 310 313 312 315 315 317 318 317 316 315 313 311 308 304 302 300 297
210 200 217 235 252 247 235 235 264 285 283 273 270 273 282 283 281 279 275 275 287 306 307 302 308 308 318 316 313 316 314 314 318 317 316 316 314 312 310 309 306 303 299
192 191 214 236 247 250 248 254 278 281 285 288 280 286 293 292 289 284 278 275 267 276 291 297 301 307 313 313 314 316 313 315 316 316 316 316 315 314 312 310 308 305 302
181 187 204 221 247 258 260 264 274 279 288 297 298 295 294 295 296 295 287 282 279 277 287 298 299 305 307 311 316 316 314 314 313 315 316 316 316 316 314 313 310 308 306
179 183 186 208 252 264 261 251 271 277 281 289 295 297 298 303 302 301 297 293 288 282 285 297 304 309 308 310 311 314 317 316 314 314 317 317 317 317 316 316 313 311 309
152 147 153 212 268 275 271 261 252 259 271 277 284 288 293 299 299 301 298 296 294 296 290 295 303 306 306 313 316 315 312 311 315 317 318 318 319 319 319 319 317 314 312
133 120 133 291 296 289 280 270 256 267 282 289 291 288 287 285 288 295 297 296 300 304 303 302 304 308 309 313 315 319 320 320 318 318 317 318 318 320 322 322 321 319 317
106 98 65 1 341 316 291 304 282 294 292 301 304 299 296 300 303 306 306 307 309 309 310 310 309 312 315 322 321 317 316 318 313 309 318 318 318 320 324 324 325 326 325
81 68 40 3 345 327 320 327 333 303 305 309 312 311 306 303 312 317 315 318 317 314 312 309 307 309 310 312 313 314 315 318 318 319 321 316 319 321 322 322 326 330 331
85 62 11 356 331 316 326 330 335 351 320 308 307 313 320 320 324 314 317 325 321 319 316 307 302 304 306 309 311 311 311 309 302 307 312 307 316 319 320 325 331 335 338
98 85 346 333 335 332 339 342 349 -0 313 303 301 301 308 312 315 325 327 326 321 318 316 314 302 302 304 305 300 299 300 300 294 296 303 302 314 316 320 321 333 341 345
77 35 339 338 335 328 337 345 356 345 330 321 313 311 314 307 317 332 333 326 325 325 327 326 322 320 321 322 322 317 315 315 312 312 319 309 309 314 315 320 333 345 349
125 33 356 335 320 314 332 345 355 351 335 328 324 322 324 328 328 335 335 327 325 326 329 330 331 331 327 328 334 328 316 312 311 312 325 327 314 324 321 319 335 342 347
Height
1522 1523 1523 1523 1523 1523 1522 1522 1521 1521 1521 1520 1519 1519 1518 1517 1517 1516 1515 1514 1513 1512 1511 1509 1508 1507 1505 1504 1502 1501 1499 1498 1497 1496 1494 1493 1492 1491 1490 1489 1489 1488 1487
1521 1521 1522 1522 1521 1521 1521 1520 1520 1520 1519 1518 1518 1517 1516 1516 1515 1514 1513 1511 1510 1509 1507 1506 1505 1503 1502 1500 1498 1497 1495 1494 1492 1491 1489 1488 1486 1485 1484 1483 1482 1481 1481
1520 1520 1520 1520 1520 1520 1519 1519 1519 1518 1517 1517 1516 1515 1514 1513 1512 1511 1510 1509 1507 1506 1505 1503 1501 1499 1498 1496 1494 1492 1490 1489 1487 1485 1484 1482 1480 1478 1477 1476 1475 1475 1474
1519 1519 1519 1519 1519 1518 1518 1517 1517 1516 1515 1514 1513 1512 1512 1511 1510 1508 1507 1506 1505 1503 1502 1500 1497 1495 1493 1491 1489 1488 1486 1484 1482 1480 1478 1476 1474 1472 1470 1469 1468 1467 1467
1517 1517 1517 1517 1517 1517 1516 1515 1515 1514 1513 1512 1511 1509 1509 1508 1507 1506 1505 1503 1502 1500 1498 1496 1494 1492 1489 1487 1485 1483 1481 1479 1477 1475 1472 1470 1468 1465 1463 1462 1461 1460 1460
1515 1516 1516 1515 1515 1515 1515 1514 1513 1512 1511 1509 1508 1507 1506 1505 1504 1503 1502 1500 1499 1497 1495 1493 1490 1488 1485 1483 1480 1478 1476 1474 1471 1469 1467 1464 1462 1459 1457 1456 1454 1453 1452
1513 1514 1514 1514 1513 1513 1513 1512 1511 1510 1509 1507 1505 1503 1502 1501 1500 1500 1499 1497 1496 1494 1492 1489 1487 1484 1481 1479 1476 1473 1471 1468 1466 1464 1461 1458 1455 1453 1451 1449 1448 1446 1445
1511 1512 1512 1512 1511 1511 1511 1510 1509 1508 1507 1506 1504 1501 1499 1498 1497 1496 1495 1493 1492 1491 1489 1486 1483 1480 1477 1474 1472 1469 1466 1463 1460 1458 1455 1452 1449 1446 1444 1442 1440 1439 1438
1509 1509 1509 1509 1509 1509 1509 1508 1507 1506 1505 1504 1504 1503 1500 1496 1493 1491 1491 1489 1488 1487 1485 1482 1479 1477 1474 1470 1467 1464 1461 1458 1455 1452 1448 1445 1442 1439 1437 1435 1433 1431 1429
1506 1507 1507 1507 1507 1507 1506 1506 1505 1505 1504 1502 1502 1501 1500 1498 1495 1489 1487 1486 1485 1483 1481 1478 1475 1472 1470 1466 1463 1460 1456 1453 1449 1446 1442 1439 1435 1432 1429 1427 1425 1423 1421
1504 1504 1504 1504 1504 1504 1504 1504 1503 1503 1502 1501 1500 1498 1497 1495 1493 1490 1483 1480 1479 1478 1476 1474 1471 1468 1465 1462 1458 1455 1451 1447 1444 1440 1436 1432 1428 1425 1421 1419 1416 1414 1412
1501 1501 1502 1502 1502 1502 1502 1501 1501 1500 1499 1498 1497 1496 1494 1492 1490 1487 1482 1477 1473 1472 1471 1469 1466 1463 1460 1457 1453 1450 1446 1442 1438 1434 1429 1425 1421 1417 1414 1410 1408 1406 1404
1497 1498 1498 1499 1499 1499 1499 1499 1498 1497 1496 1495 1494 1493 1491 1490 1488 1485 1481 1475 1470 1467 1465 1463 1461 1459 1455 1452 1448 1444 1440 1436 1432 1427 1423 1418 1414 1410 1406 1403 1400 1397 1395
1494 1495 1496 1496 1496 1496 1496 1496 1495 1494 1493 1492 1491 1490 1488 1486 1484 1482 1479 1475 1467 1462 1460 1458 1456 1453 1450 1446 1442 1438 1434 1430 1426 1421 1417 1412 1407 1403 1399 1395 1392 1389 1387
1492 1492 1493 1493 1493 1493 1493 1492 1492 1491 1490 1489 1488 1486 1484 1482 1480 1478 1476 1473 1470 1461 1454 1451 1450 1448 1445 1441 1437 1433 1428 1424 1420 1415 1411 1406 1401 1396 1391 1388 1384 1381 1378
1489 1489 1489 1490 1490 1490 1490 1489 1489 1488 1487 1485 1484 1482 1480 1478 1476 1474 1472 1469 1466 1462 1454 1447 1446 1443 1440 1436 1432 1428 1423 1419 1414 1409 1404 1399 1394 1389 1385 1381 1377 1374 1370
1486 1486 1486 1487 1487 1486 1486 1486 1485 1484 1483 1481 1480 1478 1476 1474 1472 1470 1467 1465 1462 1459 1452 1444 1442 1438 1435 1430 1426 1422 1417 1412 1407 1403 1398 1393 1388 1383 1379 1374 1370 1366 1362
1483 1483 1483 1483 1483 1483 1483 1482 1481 1480 1479 1477 1476 1474 1472 1470 1468 1466 1463 1460 1457 1454 1450 1442 1436 1433 1429 1425 1421 1416 1412 1407 1402 1397 1392 1388 1383 1378 1373 1368 1363 1359 1354
1480 1480 1480 1480 1480 1480 1479 1478 1478 1477 1475 1474 1472 1470 1468 1466 1464 1461 1458 1456 1453 1449 1446 1440 1433 1430 1425 1421 1416 1411 1407 1402 1397 1392 1387 1382 1377 1372 1367 1362 1357 1352 1347
1477 1477 1477 1477 1477 1477 1476 1475 1474 1473 1472 1470 1469 1467 1465 1463 1460 1457 1454 1451 1448 1445 1441 1437 1431 1426 1421 1417 1412 1406 1400 1396 1391 1387 1382 1378 1373 1367 1363 1357 1352 1346 1341
1474 1475 1475 1475 1474 1474 1473 1472 1471 1470 1468 1467 1465 1463 1461 1459 1457 1454 1451 1448 1444 1441 1437 1433 1428 1422 1417 1413 1408 1403 1398 1392 1387 1383 1377 1373 1368 1363 1358 1353 1348 1342 1336
1472 1472 1472 1472 1472 1471 1471 1470 1468 1467 1465 1463 1461 1459 1457 1455 1453 1450 1448 1445 1442 1438 1434 1430 1425 1420 1415 1411 1406 1401 1396 1389 1382 1380 1375 1369 1365 1360 1355 1350 1345 1340 1334
1470 1470 1470 1470 1469 1469 1468 1467 1465 1464 1462 1460 1458 1456 1453 1451 1449 1446 1443 1441 1438 1435 1432 1428 1422 1418 1413 1408 1404 1398 1393 1389 1383 1378 1373 1366 1363 1358 1353 1348 1344 1338 1333
1467 1468 1468 1467 1467 1466 1465 1464 1462 1461 1459 1457 1455 1453 1450 1448 1445 1443 1440 1437 1434 1431 1428 1424 1420 1415 1411 1406 1402 1397 1392 1386 1381 1377 1373 1366 1360 1356 1351 1346 1342 1337 1332
1466 1466 1466 1465 1464 1463 1462 1461 1459 1457 1456 1454 1452 1450 1448 1445 1443 1440 1437 1433 1430 1427 1424 1420 1417 1413 1408 1404 1400 1395 1389 1384 1378 1373 1371 1366 1359 1354 1349 1345 1341 1337 1332
1464 1464 1463 1463 1462 1461 1460 1458 1457 1455 1453 1451 1449 1447 1445 1443 1440 1437 1434 1431 1427 1423 1419 1416 1412 1409 1405 1401 1397 1393 1388 1383 1377 1372 1369 1365 1360 1355 1349 1344 1341 1337 1333